Regional Weather Roundup
Issued by NWS

Home | Current Version | Previous Version | Text Only | Print | Product List | Glossary On
Versions: 1 2 3 4 5 6 7 8 9 10 11 12 13 14 15 16 17 18 19 20 21 22 23 24 25 26 27 28 29 30 31 32 33 34 35 36 37 38 39 40 41 42 43 44 45 46 47 48 49 50
000
ASUS45 KBOI 211410
RWRID
WEATHER ROUNDUP FOR IDAHO
NATIONAL WEATHER SERVICE BOISE ID
800 AM MDT TUE OCT 21 2014

NOTE: "FAIR" INDICATES FEW OR NO CLOUDS BELOW 12000 FEET
WITH NO SIGNIFICANT WEATHER AND/OR OBSTRUCTIONS TO VISIBILITY

IDZ012-014-211500-
SOUTHWEST IDAHO


CITY           SKY/WX    TMP DP  RH WIND       PRES   REMARKS
BOISE          CLOUDY    50  43  77 SE6       29.92F
CALDWELL       CLOUDY    48  37  66 S9        29.96R
MOUNTAIN HOME  CLOUDY    47  47 100 SE6       29.94R
$$

IDZ016-017-211500-
SOUTHCENTRAL IDAHO


CITY           SKY/WX    TMP DP  RH WIND       PRES   REMARKS
BURLEY         LGT RAIN  41  37  86 W21G31    30.00R
JEROME         LGT RAIN  42  39  89 W9        30.00S
TWIN FALLS     LGT RAIN  43  39  86 S6        30.00S
$$

IDZ019>023-211500-
SOUTHEAST IDAHO


CITY           SKY/WX    TMP DP  RH WIND       PRES   REMARKS
IDAHO FALLS    CLOUDY    50  42  74 S14       29.90R
POCATELLO      LGT RAIN  47  43  86 W31G41    29.97R
REXBURG        CLOUDY    51  42  71 SW15G21   29.87R
$$

IDZ006-010-011-018-031-032-211500-
CENTRAL IDAHO MOUNTAINS


CITY           SKY/WX    TMP DP  RH WIND       PRES   REMARKS
MCCALL         LGT RAIN  41  39  93 SW6       29.88R
HAILEY         LGT RAIN  43  39  87 S12G24    29.92R
STANLEY          N/A     36  34  92 N8        29.91R WCI  30
SALMON         CLOUDY    50  43  76 E7        29.74S
CHALLIS        TSTM      46  39  76 W20G33    29.82R
$$

IDZ002-004-006-007-026-211500-
NORTHERN IDAHO


CITY           SKY/WX    TMP DP  RH WIND       PRES   REMARKS
LEWISTON       CLOUDY    52  48  86 CALM      29.89R
LOWELL           N/A     50  49  96 CALM      29.91R
COEUR D`ALENE  CLOUDY    48  45  87 S5        29.87R
MULLAN PASS    LGT RAIN  35  35 100 NW6       29.85R VSB 1/2 WCI  30
$$


USA.gov is the U.S. government's official web portal to all federal, state and local government web resources and services.